Weather History for Cut Bank, MT

Change the Weather History Date:

Saturday, April 27, 2013

  Actual Average Record
Temperature  
Mean Temperature 58 °F 44 °F  
Max Temperature 66 °F 57 °F 82 °F (1987)
Min Temperature 49 °F 32 °F 16 °F (1954)
Degree Days  
Heating Degree Days 7 21  
Month to date heating degree days 761 660  
Since 1 July heating degree days 7555 7758  
Cooling Degree Days 0 0  
Month to date cooling degree days 0 0  
Year to date cooling degree days 0 0  
Growing Degree Days 7 (Base 50)    
Moisture  
Dew Point 29 °F    
Average Humidity 36    
Maximum Humidity 50    
Minimum Humidity 22    
Precipitation  
Precipitation 0.00 in 0.04 in 0.88 in (1970)
Month to date precipitation 0.68 0.68  
Year to date precipitation 1.98 1.59  
Snow  
Snow 0.00 in - - ()
Snow Depth 0.00 in    
Sea Level Pressure  
Sea Level Pressure 29.81 in    
Wind  
Wind Speed 34 mph (WSW)    
Max Wind Speed 59 mph    
Max Gust Speed 70 mph    
Visibility 10 miles    
Events      
T = Trace of Precipitation, MM = Missing Value Source: NWS Daily Summary

Daily Weather History Graph

Daily Weather History Graph

Search for Another Location

Airport:

Trip Planner

Search our weather history database for the weather conditions in past years. The results will help you decide how hot, cold, wet, or windy it might be!

Date:

Astronomy

Apr. 27, 2013 Rise Set
Actual Time 6:16 AM MDT 8:39 PM MDT
Civil Twilight 5:41 AM MDT 9:13 PM MDT
Nautical Twilight 4:57 AM MDT 9:57 PM MDT
Astronomical Twilight 4:08 AM MDT 10:48 PM MDT
Moon 11:21 PM MDT (4/27) 7:30 AM MDT (4/27)
Length of Visible Light 15h 32m
Length of Day
14h 23m
Waning Gibbous, 95% of the Moon is Illuminated
Apr 27
Waning Gibbous
May 2
Last Quarter
May 9
New
May 17
First Quarter
May 24
Full

Hourly Weather History & Observations

Time (MDT) Temp. Dew Point Humidity Pressure Visibility Wind Dir Wind Speed Gust Speed Precip Events Conditions
12:56 AM 53.1 °F 32.0 °F 45% 29.99 in 10.0 mi WSW 18.4 mph - N/A   Clear
1:56 AM 51.1 °F 33.1 °F 50% 29.93 in 10.0 mi WSW 13.8 mph - N/A   Clear
2:56 AM 51.1 °F 32.0 °F 48% 29.89 in 10.0 mi SW 20.7 mph - N/A   Clear
3:56 AM 53.1 °F 30.0 °F 41% 29.89 in 10.0 mi SW 16.1 mph - N/A   Clear
4:56 AM 51.1 °F 28.9 °F 43% 29.88 in 10.0 mi WSW 9.2 mph - N/A   Clear
5:56 AM 53.1 °F 28.9 °F 40% 29.83 in 10.0 mi WSW 21.9 mph 29.9 mph N/A   Clear
6:56 AM 54.0 °F 28.0 °F 37% 29.83 in 10.0 mi WSW 10.4 mph - N/A   Clear
7:56 AM 57.9 °F 26.1 °F 30% 29.82 in 10.0 mi West 26.5 mph 36.8 mph N/A   Clear
8:56 AM 59.0 °F 26.1 °F 28% 29.85 in 10.0 mi WSW 25.3 mph 33.4 mph N/A   Clear
9:56 AM 60.1 °F 25.0 °F 26% 29.85 in 10.0 mi West 28.8 mph 41.4 mph N/A   Clear
10:56 AM 64.0 °F 26.1 °F 24% 29.84 in 10.0 mi WSW 28.8 mph 35.7 mph N/A   Clear
11:56 AM 64.0 °F 24.1 °F 22% 29.85 in 10.0 mi WSW 28.8 mph 43.7 mph N/A   Clear
12:56 PM 61.0 °F 26.1 °F 26% 29.83 in 10.0 mi WSW 42.6 mph 52.9 mph N/A   Clear
1:56 PM 62.1 °F 28.9 °F 29% 29.80 in 10.0 mi WSW 51.8 mph 61.0 mph N/A   Clear
2:56 PM 64.0 °F 25.0 °F 23% 29.81 in 10.0 mi WSW 40.3 mph 50.6 mph N/A   Clear
3:56 PM 61.0 °F 28.0 °F 29% 29.80 in 10.0 mi West 42.6 mph 58.7 mph N/A   Clear
4:56 PM 59.0 °F 30.9 °F 35% 29.75 in 10.0 mi WSW 54.1 mph 70.2 mph N/A   Clear
5:56 PM 54.0 °F 33.1 °F 45% 29.74 in 10.0 mi WSW 50.6 mph 70.2 mph N/A   Clear
6:56 PM 53.1 °F 34.0 °F 48% 29.75 in 10.0 mi WSW 47.2 mph 63.3 mph N/A   Clear
7:56 PM 52.0 °F 34.0 °F 50% 29.72 in 10.0 mi WSW 46.0 mph 62.1 mph N/A   Clear
8:56 PM 51.1 °F 30.9 °F 46% 29.73 in 10.0 mi WSW 41.4 mph 50.6 mph N/A   Clear
9:56 PM 50.0 °F 30.9 °F 48% 29.71 in 10.0 mi WSW 42.6 mph 54.1 mph N/A   Clear
10:56 PM 50.0 °F 32.0 °F 50% 29.73 in 10.0 mi WSW 40.3 mph 52.9 mph N/A   Clear
11:56 PM 50.0 °F 32.0 °F 50% 29.72 in 10.0 mi West 48.3 mph 58.7 mph N/A   Clear